TimeCDT,TemperatureF,Dew PointF,Humidity,Sea Level PressureIn,VisibilityMPH,Wind Direction,Wind SpeedMPH,Gust SpeedMPH,PrecipitationIn,Events,Conditions,WindDirDegrees,DateUTC
12:55 AM,26.4,16.2,65,29.91,10.0,WNW,9.2,-,N/A,,Scattered Clouds,300,2012-11-01 05:55:00
1:55 AM,34.7,18.5,52,29.90,10.0,WNW,8.1,-,N/A,,Overcast,300,2012-11-01 06:55:00
2:55 AM,34.7,15.8,46,29.89,10.0,West,6.9,-,N/A,,Overcast,270,2012-11-01 07:55:00
3:55 AM,32.2,14.9,49,29.88,10.0,WNW,6.9,-,N/A,,Scattered Clouds,290,2012-11-01 08:55:00
4:55 AM,31.6,16.3,53,29.88,10.0,West,4.6,-,N/A,,Mostly Cloudy,280,2012-11-01 09:55:00
5:55 AM,36.7,17.8,46,29.90,10.0,WNW,6.9,-,N/A,,Overcast,290,2012-11-01 10:55:00
6:55 AM,30.2,15.8,55,29.90,10.0,West,4.6,-,N/A,,Scattered Clouds,280,2012-11-01 11:55:00
7:35 AM,30.2,17.6,60,29.86,10.0,West,5.8,-,N/A,,Mostly Cloudy,270,2012-11-01 12:35:00
7:55 AM,32.0,19.4,60,29.91,10.0,WNW,5.8,-,N/A,,Mostly Cloudy,290,2012-11-01 12:55:00
8:55 AM,39.2,21.2,49,29.91,10.0,WNW,8.1,-,N/A,,Mostly Cloudy,290,2012-11-01 13:55:00
9:55 AM,44.6,19.4,37,29.91,10.0,WNW,11.5,-,N/A,,Mostly Cloudy,290,2012-11-01 14:55:00
10:55 AM,46.4,24.8,43,29.92,10.0,NNW,10.4,-,N/A,,Mostly Cloudy,330,2012-11-01 15:55:00
11:55 AM,48.2,28.4,46,29.91,10.0,NNW,13.8,-,N/A,,Scattered Clouds,330,2012-11-01 16:55:00
12:55 PM,50.0,28.4,43,29.89,10.0,WNW,13.8,18.4,N/A,,Scattered Clouds,300,2012-11-01 17:55:00
1:55 PM,50.0,28.4,43,29.88,10.0,NNW,11.5,17.3,N/A,,Mostly Cloudy,340,2012-11-01 18:55:00
2:55 PM,48.2,30.2,50,29.88,10.0,WNW,10.4,19.6,N/A,,Mostly Cloudy,300,2012-11-01 19:55:00
3:55 PM,46.4,28.4,50,29.90,10.0,NNW,17.3,20.7,N/A,,Mostly Cloudy,340,2012-11-01 20:55:00
4:55 PM,46.4,26.6,46,29.90,10.0,NW,10.4,-,N/A,,Mostly Cloudy,310,2012-11-01 21:55:00
5:55 PM,42.8,27.3,54,29.92,10.0,NNW,6.9,-,N/A,,Mostly Cloudy,330,2012-11-01 22:55:00
6:55 PM,41.0,28.4,61,29.95,10.0,NW,6.9,-,N/A,,Mostly Cloudy,320,2012-11-01 23:55:00
7:55 PM,39.2,28.4,65,29.96,10.0,North,8.1,-,N/A,,Mostly Cloudy,360,2012-11-02 00:55:00
8:55 PM,35.6,28.4,75,29.98,10.0,NNW,8.1,-,N/A,,Scattered Clouds,330,2012-11-02 01:55:00
9:55 PM,33.6,27.9,79,29.99,10.0,NW,8.1,-,N/A,,Clear,320,2012-11-02 02:55:00
10:55 PM,28.4,24.8,86,30.00,10.0,WNW,5.8,-,N/A,,Clear,300,2012-11-02 03:55:00
11:55 PM,24.3,22.3,92,30.01,10.0,WNW,6.9,-,N/A,,Clear,300,2012-11-02 04:55:00